Home > Time Zones > World Clock > Weather > U.S.A. > Napa > Past weeks

Flag for U.S.A. Weather past 2 weeks in Napa, California, U.S.A.

Now
68 °F

Sunny.


Feels Like: 68 °F
Forecast: 47 / 69 °F
Wind: 23 mph from Northwest

Location: Napa County Airport

Current Time: Mar 31, 2015 at 2:14:43 PM

Latest Report: Mar 31, 2015 at 12:54 PM


Visibility: 10 mi

Pressure: 30.11 "Hg

Humidity: 38%

Dew point: 41 °F

Location of NapaLocation

Historic Weather in Napa — Graph

°F

Napa temperature yesterday

Maximum temperature yesterday: 69 °F (at 3:54 PM)
Minimum temperature yesterday: 44 °F (at 3:54 AM)
Average temperature yesterday: 56 °F

Past Weeks' High & Low Weather Summary

 TemperatureHumidityPressure
High79 °F (Mar 26, 1:54 PM)100% (Mar 19, 6:54 AM)30.28 "Hg (Mar 19, 6:54 AM)
Low38 °F (Mar 20, 5:04 AM)38% (Mar 31, 12:54 PM)29.94 "Hg (Mar 19, 5:54 PM)
Average56 °F78%30.09 "Hg
* Reported Mar 16 12:54 PM — Mar 31 12:54 PM, Napa, Weather by CustomWeather, © 2015

Note: Actual official high and low records may vary slightly from our data, if they occured in-between our weather recording intervals... More about our weather records

Advertising

Napa weather history for previous 24 hours

 ConditionsComfort  
Time TempWeatherWind HumidityBarometerVisibility
12:54 PM
Tue, Mar 31
68 °FSunny.23 mph38%30.11 "Hg10 mi
11:54 AM66 °FSunny.20 mph49%30.11 "Hg10 mi
10:54 AM64 °FSunny.14 mph58%30.12 "Hg10 mi
9:54 AM60 °FSunny.15 mph67%30.11 "Hg10 mi
8:54 AM55 °FSunny.10 mph77%30.11 "Hg10 mi
7:54 AM51 °FClear.5 mph80%30.09 "Hg10 mi
6:54 AM49 °FClear.7 mph84%30.06 "Hg10 mi
5:54 AM51 °FClear.7 mph77%30.04 "Hg10 mi
4:54 AM49 °FClear.12 mph84%30.03 "Hg10 mi
3:54 AM50 °FClear.8 mph83%30.03 "Hg10 mi
2:54 AM50 °FClear.10 mph83%30.03 "Hg10 mi
1:54 AM51 °FClear.14 mph83%30.03 "Hg10 mi
12:54 AM53 °FClear.17 mph74%30.02 "Hg10 mi
11:54 PM
Mon, Mar 30
53 °FClear.13 mph74%30.01 "Hg10 mi
10:54 PM53 °FClear.18 mph80%30.00 "Hg10 mi
9:54 PM53 °FClear.20 mph80%30.00 "Hg10 mi
8:54 PM53 °FClear.9 mph80%30.00 "Hg10 mi
7:54 PM55 °FSunny.No wind74%29.97 "Hg10 mi
6:54 PM58 °FSunny.6 mph72%29.96 "Hg10 mi
5:54 PM64 °FSunny.15 mph58%29.96 "Hg10 mi
4:54 PM67 °FSunny.16 mph57%29.96 "Hg10 mi
3:54 PM69 °FSunny.16 mph59%29.97 "Hg10 mi
2:54 PM68 °FSunny.14 mph61%29.98 "Hg10 mi
Weather by CustomWeather, © 2015

See weather overviewHow to use our weather pages